• In Hungary
  • List of Countries
  • For 7 days
  • Water Temperature
  • Satellite Maps
  • Weather Map
  • News
  • Weather Widgets
  • user-avatar
    Login

    Hourly Weather Letnany

    Today, 18 October, Wednesday

    Time Temperature Precipitation Wind Pressure Humidity
    00:00 +13°C° 0 mm 1 mps 739 mmHg 84%
    01:00 +12°C° 0 mm 1 mps 739 mmHg 85%
    02:00 +12°C° 0 mm 1 mps 739 mmHg 87%
    03:00 +11°C° 0 mm 1 mps 739 mmHg 88%
    04:00 +11°C° 0 mm 1 mps 738 mmHg 89%
    05:00 +11°C° 0 mm 1 mps 738 mmHg 90%
    06:00 +11°C° 0 mm 1 mps 738 mmHg 90%
    07:00 +11°C° 0 mm 1 mps 738 mmHg 91%
    08:00 +12°C° 0 mm 1 mps 738 mmHg 85%
    09:00 +14°C° 0 mm 1 mps 738 mmHg 78%
    10:00 +16°C° 0 mm 1 mps 738 mmHg 72%
    11:00 +18°C° 0 mm 1 mps 737 mmHg 68%
    12:00 +19°C° 0 mm 1 mps 737 mmHg 64%
    13:00 +20°C° 0 mm 1 mps 737 mmHg 60%
    14:00 +19°C° 0 mm 1 mps 737 mmHg 62%
    15:00 +19°C° 0 mm 1 mps 736 mmHg 65%
    16:00 +19°C° 0 mm 1 mps 736 mmHg 68%
    17:00 +15°C° 0 mm 0 mps 736 mmHg 73%
    18:00 +14°C° 0 mm 0 mps 736 mmHg 77%
    19:00 +13°C° 0 mm 0 mps 736 mmHg 82%
    20:00 +12°C° 0 mm 0 mps 736 mmHg 83%
    21:00 +12°C° 0 mm 0 mps 736 mmHg 85%
    22:00 +12°C° 0 mm 0 mps 736 mmHg 86%
    23:00 +11°C° 0 mm 0 mps 736 mmHg 86%

    Tomorrow, 19 October, Thursday

    Time Temperature Precipitation Wind Pressure Humidity
    00:00 +11°C° 0 mm 0 mps 736 mmHg 87%
    01:00 +12°C° 0 mm 1 mps 736 mmHg 88%
    02:00 +11°C° 0 mm 1 mps 736 mmHg 88%
    03:00 +11°C° 0 mm 1 mps 736 mmHg 89%
    04:00 +11°C° 0 mm 1 mps 736 mmHg 89%
    05:00 +11°C° 0 mm 1 mps 736 mmHg 89%
    06:00 +11°C° 0 mm 1 mps 736 mmHg 89%
    07:00 +9°C° 0 mm 0 mps 737 mmHg 89%
    08:00 +12°C° 0 mm 1 mps 737 mmHg 81%
    09:00 +14°C° 0 mm 1 mps 737 mmHg 74%
    10:00 +16°C° 0 mm 1 mps 737 mmHg 67%
    11:00 +18°C° 0 mm 1 mps 737 mmHg 62%
    12:00 +18°C° 0 mm 0 mps 737 mmHg 58%
    13:00 +19°C° 0 mm 0 mps 737 mmHg 53%
    14:00 +18°C° 0 mm 0 mps 737 mmHg 56%
    15:00 +18°C° 0 mm 0 mps 736 mmHg 58%
    16:00 +19°C° 0 mm 1 mps 736 mmHg 61%
    17:00 +18°C° 0 mm 1 mps 736 mmHg 66%
    18:00 +15°C° 0 mm 1 mps 737 mmHg 71%
    19:00 +13°C° 0 mm 0 mps 737 mmHg 76%
    20:00 +13°C° 0 mm 1 mps 737 mmHg 78%
    21:00 +13°C° 0 mm 1 mps 737 mmHg 79%
    22:00 +13°C° 0 mm 1 mps 737 mmHg 81%
    23:00 +12°C° 0 mm 1 mps 737 mmHg 82%

    Day after tomorrow, 20 October, Friday

    Time Temperature Precipitation Wind Pressure Humidity
    00:00 +12°C° 0 mm 1 mps 737 mmHg 83%
    01:00 +12°C° 0 mm 1 mps 737 mmHg 85%
    02:00 +11°C° 0 mm 1 mps 737 mmHg 85%
    03:00 +10°C° 0 mm 0 mps 737 mmHg 86%
    04:00 +10°C° 0 mm 0 mps 737 mmHg 87%
    05:00 +10°C° 0 mm 0 mps 737 mmHg 87%
    06:00 +10°C° 0 mm 1 mps 737 mmHg 88%
    07:00 +10°C° 0 mm 1 mps 737 mmHg 88%
    08:00 +12°C° 0 mm 1 mps 738 mmHg 81%
    09:00 +14°C° 0 mm 1 mps 738 mmHg 74%
    10:00 +16°C° 0 mm 1 mps 738 mmHg 67%
    11:00 +18°C° 0 mm 1 mps 738 mmHg 62%
    12:00 +18°C° 0 mm 2 mps 738 mmHg 58%
    13:00 +19°C° 0 mm 2 mps 738 mmHg 53%
    14:00 +19°C° 0 mm 2 mps 737 mmHg 56%
    15:00 +19°C° 0 mm 1 mps 737 mmHg 59%
    16:00 +19°C° 0 mm 1 mps 737 mmHg 62%
    17:00 +18°C° 0 mm 1 mps 737 mmHg 67%
    18:00 +15°C° 0 mm 1 mps 738 mmHg 72%
    19:00 +14°C° 0 mm 2 mps 738 mmHg 77%
    20:00 +13°C° 0 mm 1 mps 738 mmHg 79%
    21:00 +13°C° 0 mm 1 mps 738 mmHg 81%
    22:00 +12°C° 0 mm 1 mps 738 mmHg 83%
    23:00 +12°C° 0 mm 1 mps 738 mmHg 85%

    21 October, Saturday

    Time Temperature Precipitation Wind Pressure Humidity
    00:00 +12°C° 0 mm 1 mps 738 mmHg 86%
    01:00 +12°C° 0 mm 1 mps 738 mmHg 87%
    02:00 +11°C° 0 mm 1 mps 738 mmHg 88%
    03:00 +11°C° 0 mm 1 mps 738 mmHg 89%
    04:00 +11°C° 0 mm 1 mps 738 mmHg 90%
    05:00 +11°C° 0 mm 1 mps 738 mmHg 90%
    06:00 +10°C° 0 mm 1 mps 738 mmHg 90%
    07:00 +10°C° 0 mm 1 mps 738 mmHg 90%
    08:00 +12°C° 0 mm 1 mps 738 mmHg 83%
    09:00 +14°C° 0 mm 1 mps 739 mmHg 76%
    10:00 +15°C° 0 mm 1 mps 739 mmHg 70%
    11:00 +16°C° 0 mm 1 mps 738 mmHg 67%
    12:00 +17°C° 0 mm 2 mps 738 mmHg 65%
    13:00 +18°C° 0 mm 2 mps 738 mmHg 62%
    14:00 +18°C° 0 mm 2 mps 738 mmHg 65%
    15:00 +17°C° 0 mm 2 mps 738 mmHg 67%
    16:00 +18°C° 0 mm 1 mps 737 mmHg 70%
    17:00 +16°C° 0 mm 1 mps 737 mmHg 73%
    18:00 +15°C° 0 mm 2 mps 737 mmHg 77%
    19:00 +14°C° 0 mm 2 mps 737 mmHg 80%
    20:00 +14°C° 0 mm 2 mps 737 mmHg 81%
    21:00 +14°C° 0 mm 2 mps 738 mmHg 82%
    22:00 +14°C° 0 mm 2 mps 738 mmHg 83%
    23:00 +14°C° 0.6 mm 2 mps 738 mmHg 85%

    22 October, Sunday

    Time Temperature Precipitation Wind Pressure Humidity
    00:00 +14°C° 0.6 mm 1 mps 738 mmHg 88%
    01:00 +14°C° 0.6 mm 1 mps 738 mmHg 90%
    02:00 +14°C° 0.3 mm 1 mps 738 mmHg 91%
    03:00 +14°C° 0.3 mm 1 mps 738 mmHg 92%
    04:00 +14°C° 0.3 mm 1 mps 738 mmHg 93%
    05:00 +13°C° 0.5 mm 2 mps 738 mmHg 92%
    06:00 +13°C° 0.5 mm 2 mps 738 mmHg 92%
    07:00 +13°C° 0.5 mm 2 mps 738 mmHg 92%
    08:00 +12°C° 0.5 mm 3 mps 738 mmHg 90%
    09:00 +12°C° 0.5 mm 3 mps 738 mmHg 89%
    10:00 +12°C° 0.5 mm 3 mps 738 mmHg 87%
    11:00 +12°C° 0.5 mm 3 mps 738 mmHg 85%
    12:00 +12°C° 0.5 mm 3 mps 738 mmHg 83%
    13:00 +11°C° 0.5 mm 3 mps 738 mmHg 81%
    14:00 +11°C° 0.1 mm 3 mps 738 mmHg 80%
    15:00 +11°C° 0.1 mm 3 mps 738 mmHg 79%
    16:00 +11°C° 0.1 mm 3 mps 738 mmHg 78%
    17:00 +11°C° 0 mm 3 mps 739 mmHg 79%
    18:00 +10°C° 0 mm 3 mps 739 mmHg 80%
    19:00 +10°C° 0 mm 3 mps 739 mmHg 81%
    20:00 +9°C° 0 mm 3 mps 739 mmHg 82%
    21:00 +9°C° 0 mm 3 mps 740 mmHg 82%
    22:00 +9°C° 0 mm 3 mps 740 mmHg 82%
    23:00 +8°C° 0 mm 3 mps 740 mmHg 83%

    23 October, Monday

    Time Temperature Precipitation Wind Pressure Humidity
    00:00 +8°C° 0 mm 3 mps 741 mmHg 85%
    01:00 +8°C° 0 mm 3 mps 741 mmHg 86%
    02:00 +8°C° 0 mm 3 mps 741 mmHg 86%
    03:00 +8°C° 0 mm 3 mps 741 mmHg 85%
    04:00 +8°C° 0 mm 3 mps 742 mmHg 85%
    05:00 +8°C° 0 mm 3 mps 742 mmHg 86%
    06:00 +7°C° 0 mm 3 mps 742 mmHg 87%
    07:00 +7°C° 0 mm 3 mps 742 mmHg 88%
    08:00 +7°C° 0 mm 4 mps 743 mmHg 82%
    09:00 +8°C° 0 mm 4 mps 743 mmHg 76%
    10:00 +9°C° 0 mm 5 mps 744 mmHg 69%
    11:00 +9°C° 0 mm 5 mps 743 mmHg 66%
    12:00 +10°C° 0 mm 5 mps 743 mmHg 62%
    13:00 +10°C° 0 mm 5 mps 743 mmHg 59%
    14:00 +11°C° 0 mm 4 mps 743 mmHg 60%
    15:00 +11°C° 0 mm 3 mps 743 mmHg 62%
    16:00 +10°C° 0 mm 3 mps 743 mmHg 64%
    17:00 +9°C° 0 mm 2 mps 743 mmHg 67%
    18:00 +8°C° 0 mm 2 mps 744 mmHg 71%
    19:00 +8°C° 0 mm 2 mps 744 mmHg 74%
    20:00 +7°C° 0 mm 2 mps 744 mmHg 76%
    21:00 +7°C° 0 mm 2 mps 744 mmHg 78%
    22:00 +7°C° 0 mm 2 mps 744 mmHg 79%
    23:00 +6°C° 0 mm 2 mps 744 mmHg 81%
    Show more